Wind_Speed
38 36 34 33 31 29 28 26 25 24 23 22 20 20 19 19 18 19 20 20 21 22 22 23 24 25 26 27 29 30 32 33 34 35 36 37 37 38 39 40 41 42 42
39 38 36 34 32 30 29 28 26 25 24 23 21 20 20 20 20 20 20 21 22 23 24 24 25 26 28 29 30 31 33 34 35 36 37 38 39 40 41 42 42 43 44
40 39 38 36 34 32 30 29 27 26 25 24 22 21 21 21 21 21 21 22 23 24 25 26 26 28 29 30 31 32 34 35 36 37 38 39 40 41 42 43 44 45 45
41 40 39 37 35 33 31 30 28 27 26 24 23 23 22 22 22 22 23 24 24 25 26 27 28 29 30 31 32 34 35 36 37 39 40 41 42 43 44 45 46 46 47
42 40 39 38 36 34 32 31 29 28 27 26 24 23 23 22 23 23 24 25 26 27 27 28 29 30 31 32 34 35 36 37 39 40 42 43 44 45 46 47 47 48 48
43 42 40 38 36 35 33 32 30 29 28 26 25 25 24 24 24 25 25 26 27 27 28 29 30 31 33 34 35 36 37 39 40 41 43 44 45 46 47 48 49 49 50
44 42 40 39 37 35 34 33 31 30 28 27 26 26 25 25 25 26 26 27 28 28 29 30 31 33 34 35 36 37 38 40 41 43 44 46 46 47 48 49 50 51 52
45 43 41 39 38 36 35 33 32 30 29 28 27 27 26 26 26 27 27 28 28 29 29 31 32 34 35 36 37 38 39 41 42 44 45 47 47 48 49 51 52 53 54
45 44 42 41 39 37 36 34 33 32 30 30 29 28 28 27 28 28 28 29 29 30 31 32 34 35 36 37 38 39 41 42 43 45 46 47 48 49 51 52 54 55 55
46 45 44 42 40 38 36 35 35 33 32 31 30 29 29 29 29 29 29 30 30 31 32 33 35 36 37 38 39 41 42 43 44 46 47 48 49 51 52 54 56 56 56
47 46 44 43 41 39 38 36 35 34 33 32 31 31 30 30 30 30 31 31 32 32 33 34 36 37 38 39 40 41 43 44 45 47 48 49 51 52 54 56 57 57 58
48 47 45 44 42 40 39 38 36 35 34 34 33 32 31 31 31 32 32 32 32 33 34 35 36 37 38 40 41 42 43 45 46 47 49 50 52 54 55 57 57 58 58
48 47 45 44 43 41 40 39 38 37 36 35 34 33 33 32 33 33 33 33 33 34 35 36 37 38 39 40 41 43 44 45 47 48 50 52 53 55 56 57 58 58 58
48 47 46 45 44 43 41 40 39 38 37 36 35 34 34 33 33 34 34 34 34 34 35 37 38 39 40 41 42 43 45 46 48 49 51 53 54 56 57 57 58 58 59
49 48 47 46 45 44 41 40 39 38 37 36 36 35 34 34 34 35 34 34 35 35 36 37 38 39 41 41 42 44 45 47 49 50 52 53 55 56 57 57 58 59 59
48 48 47 46 45 44 42 40 40 39 38 37 36 35 35 35 35 35 35 35 35 36 37 38 39 40 40 42 43 45 46 47 49 51 52 54 55 56 57 58 58 59 58
48 48 47 47 45 44 43 41 40 39 38 37 37 36 36 36 35 35 35 35 36 37 37 38 39 40 41 42 44 45 47 48 50 51 53 55 55 56 57 58 58 58 58
48 47 47 46 45 44 43 41 40 40 39 38 37 36 36 36 35 35 35 35 36 37 37 38 39 40 41 43 45 46 47 49 50 52 54 55 55 56 57 58 58 58 58
50 47 46 46 45 44 43 41 40 40 39 38 37 37 36 36 35 35 35 36 37 37 38 39 40 40 42 43 45 46 47 49 51 53 54 55 55 57 58 58 58 58 58
51 50 48 46 45 44 43 42 41 40 40 39 38 37 37 36 36 36 36 37 37 38 38 39 40 41 42 43 45 46 48 50 52 54 54 55 56 57 58 58 58 58 58
52 51 49 47 45 45 43 42 42 41 40 39 37 37 36 36 36 36 37 37 37 37 38 39 39 40 42 44 45 47 49 51 52 53 54 55 56 57 57 57 57 58 58
52 51 50 47 46 45 43 42 41 41 40 38 37 37 37 37 36 36 37 36 36 37 38 38 39 41 42 44 46 47 49 51 52 53 54 55 56 57 58 57 57 58 57
52 51 50 48 45 44 43 42 42 41 40 38 37 37 36 36 36 36 36 36 36 37 38 39 40 41 43 45 46 48 50 51 52 52 54 55 57 57 57 57 57 57 57
53 51 49 48 46 44 43 41 41 41 39 38 37 36 36 35 35 35 35 35 36 37 38 38 40 42 44 45 46 48 50 51 51 53 54 55 56 57 57 57 57 57 55
53 52 49 47 46 45 44 42 42 41 40 38 37 36 35 35 34 35 35 35 36 36 37 39 41 43 44 45 46 47 49 50 51 52 54 55 55 57 57 57 57 56 53
51 51 50 48 47 45 44 43 42 41 40 39 38 37 35 35 35 34 34 35 35 36 38 40 42 42 43 44 46 47 49 49 50 52 53 55 55 56 56 56 55 53 50
Wind_Direction
230 231 232 233 235 237 239 243 247 251 255 259 263 269 273 277 281 286 291 295 297 301 303 307 309 312 313 314 316 317 319 319 320 320 320 320 321 321 320 320 319 319 318
229 231 232 233 235 237 239 243 246 250 253 258 262 267 272 275 279 285 291 295 297 300 303 306 308 310 312 314 315 317 318 318 319 319 319 319 320 320 319 319 319 318 317
228 229 231 233 235 237 240 243 246 249 253 257 261 266 270 274 278 283 289 294 297 300 303 305 306 309 311 313 314 316 317 317 318 318 318 319 319 319 318 318 318 318 317
227 228 230 232 235 237 239 242 245 248 252 255 260 265 269 273 278 283 288 293 296 300 302 304 305 308 310 311 313 314 315 316 317 317 318 318 319 319 318 318 318 317 316
226 227 229 231 234 236 238 241 245 248 251 255 260 265 269 274 279 283 287 292 296 298 301 303 305 307 309 310 312 313 314 315 316 317 317 318 318 318 318 318 318 317 316
226 227 229 230 233 235 237 241 244 247 251 255 259 264 269 273 278 283 287 291 295 297 300 302 304 307 308 310 311 312 314 315 315 316 317 317 318 318 318 318 317 316 316
225 226 228 230 232 235 237 240 243 246 251 255 259 264 269 273 278 281 286 289 293 297 299 301 303 306 308 309 311 312 313 314 315 316 317 317 317 318 318 318 318 317 316
224 225 228 230 231 234 237 240 243 246 250 254 259 264 268 273 277 281 285 288 292 296 299 301 303 306 308 309 311 312 312 313 315 316 316 317 317 318 318 318 318 317 316
224 225 228 229 231 233 236 240 243 247 250 254 258 263 268 273 277 281 284 288 291 295 298 301 303 305 307 308 310 311 312 313 314 315 316 317 317 318 318 318 317 316 316
225 226 228 230 232 233 236 239 243 247 250 254 259 264 268 272 276 280 284 287 290 293 297 299 302 304 306 307 309 310 311 313 314 315 316 316 317 317 318 318 317 317 316
225 226 227 229 232 234 236 240 244 246 250 254 259 264 268 272 276 279 282 286 289 292 295 299 301 303 305 306 308 309 311 312 313 315 315 316 316 317 318 318 318 317 316
226 227 228 230 232 235 237 241 244 247 250 254 259 263 268 272 275 278 281 285 288 291 295 298 300 303 304 306 307 308 310 312 313 314 315 316 316 317 318 319 318 317 317
226 228 229 231 233 235 238 241 244 247 250 254 258 262 267 271 274 277 281 285 288 292 295 298 301 302 304 305 307 308 310 312 313 314 315 316 317 318 319 319 319 318 318
226 228 229 232 233 235 239 242 244 247 250 254 258 262 267 271 274 277 281 284 288 291 295 298 300 302 303 305 307 308 310 312 313 315 316 316 317 318 318 319 319 319 319
225 228 230 232 234 236 239 241 244 247 250 254 258 262 266 270 274 277 280 283 287 291 295 298 300 301 303 305 307 309 310 312 314 315 316 317 318 318 319 319 319 320 320
225 227 231 233 234 237 239 241 244 247 250 254 258 262 266 270 274 277 279 283 287 290 294 297 300 302 303 305 307 309 310 312 314 315 316 317 318 318 319 320 320 320 320
226 228 231 233 235 237 239 242 244 247 250 254 258 262 265 269 273 276 279 283 286 290 294 297 300 302 303 306 308 309 311 312 314 315 317 317 318 319 320 321 321 321 320
226 228 231 234 235 237 239 243 246 248 251 254 258 261 265 269 272 275 279 283 286 290 294 297 300 302 304 306 308 310 311 312 314 316 317 318 319 319 321 321 321 321 321
227 229 231 233 235 237 240 243 246 248 251 254 257 261 265 268 272 274 278 282 286 290 294 298 300 302 304 307 308 310 311 313 315 316 318 319 319 320 321 321 321 321 322
228 229 232 234 236 238 240 243 246 248 251 254 257 261 265 268 271 274 278 282 286 290 295 298 300 302 305 307 309 311 312 314 315 316 318 319 319 320 321 321 321 321 322
228 229 231 234 236 239 241 244 246 248 251 254 257 261 264 266 270 273 278 282 286 290 294 297 300 303 306 308 309 311 313 314 315 317 318 319 320 320 320 321 321 322 322
228 229 231 234 237 239 241 243 245 248 250 254 257 261 264 266 269 274 278 281 286 291 295 298 301 304 306 308 310 312 313 314 316 317 318 319 320 320 321 321 322 322 322
228 229 231 233 237 238 240 242 245 248 251 254 257 261 264 268 271 275 278 282 287 291 295 298 301 304 306 308 310 312 314 315 317 318 319 320 320 321 321 322 322 323 323
228 230 231 232 236 238 240 244 246 249 251 254 257 260 264 268 272 275 279 283 288 292 295 298 301 304 306 308 310 313 315 316 318 319 320 320 321 321 322 322 323 323 324
228 229 230 232 234 237 240 243 246 249 251 254 256 260 264 269 272 276 280 285 289 292 295 299 302 304 306 308 311 313 315 317 318 319 320 321 321 322 322 322 323 324 324
228 229 229 232 234 236 240 243 246 248 250 253 256 260 265 269 273 277 281 286 290 293 296 299 302 304 307 310 312 314 315 317 319 320 321 321 322 322 322 323 323 325 325
Height
5814 5818 5821 5823 5826 5828 5830 5831 5832 5833 5834 5834 5834 5834 5834 5833 5832 5831 5829 5828 5826 5824 5821 5819 5816 5813 5810 5806 5803 5799 5795 5791 5786 5782 5777 5772 5767 5762 5757 5752 5747 5742 5736
5807 5811 5814 5818 5820 5822 5824 5826 5827 5828 5829 5830 5830 5830 5829 5829 5828 5826 5825 5823 5821 5819 5817 5814 5812 5809 5805 5802 5798 5794 5789 5785 5781 5776 5771 5766 5761 5756 5751 5745 5740 5734 5729
5800 5804 5808 5811 5814 5817 5819 5820 5822 5823 5824 5825 5825 5825 5825 5824 5823 5822 5820 5819 5817 5815 5812 5810 5807 5804 5800 5796 5793 5788 5784 5780 5775 5770 5765 5760 5755 5749 5744 5738 5732 5726 5720
5793 5797 5801 5805 5808 5811 5813 5815 5817 5818 5819 5820 5820 5820 5820 5819 5818 5817 5815 5814 5812 5810 5807 5805 5802 5798 5795 5791 5787 5783 5778 5774 5769 5764 5759 5754 5748 5742 5736 5730 5724 5718 5712
5786 5790 5795 5798 5802 5805 5807 5809 5811 5813 5814 5815 5815 5815 5815 5814 5813 5812 5810 5809 5807 5805 5802 5799 5796 5793 5789 5785 5781 5777 5772 5768 5763 5758 5752 5746 5741 5735 5729 5722 5716 5709 5703
5779 5783 5788 5791 5795 5798 5801 5804 5806 5807 5808 5809 5810 5810 5809 5809 5808 5807 5805 5803 5801 5799 5796 5794 5791 5787 5783 5779 5775 5771 5766 5761 5756 5751 5745 5739 5733 5727 5721 5714 5707 5700 5694
5771 5776 5780 5784 5788 5792 5795 5797 5799 5801 5802 5803 5804 5804 5804 5803 5802 5801 5800 5798 5796 5793 5791 5788 5785 5781 5777 5773 5769 5764 5760 5754 5749 5744 5738 5732 5725 5719 5712 5705 5698 5691 5684
5763 5768 5773 5777 5781 5785 5788 5791 5793 5795 5796 5797 5798 5798 5798 5798 5796 5795 5794 5792 5790 5788 5785 5782 5779 5775 5771 5767 5763 5758 5753 5748 5742 5736 5730 5724 5717 5711 5704 5696 5689 5681 5673
5756 5761 5766 5770 5774 5778 5781 5784 5786 5789 5790 5791 5791 5792 5792 5792 5790 5789 5788 5786 5784 5782 5779 5776 5772 5769 5765 5761 5756 5751 5746 5741 5735 5729 5723 5716 5709 5702 5695 5687 5679 5671 5663
5748 5753 5758 5763 5767 5771 5774 5777 5779 5781 5783 5784 5785 5786 5786 5785 5784 5783 5782 5780 5778 5775 5773 5769 5766 5762 5758 5754 5749 5744 5739 5734 5728 5721 5715 5708 5701 5693 5685 5677 5669 5660 5651
5740 5745 5750 5755 5759 5764 5767 5770 5772 5774 5776 5778 5779 5779 5779 5778 5778 5777 5776 5774 5772 5769 5766 5763 5759 5755 5751 5747 5742 5737 5732 5726 5720 5713 5706 5699 5692 5684 5676 5667 5658 5649 5640
5732 5737 5743 5747 5752 5756 5760 5763 5765 5767 5769 5770 5772 5772 5772 5772 5771 5770 5769 5767 5765 5762 5759 5756 5752 5748 5744 5739 5735 5729 5724 5718 5712 5705 5698 5691 5683 5675 5666 5657 5647 5638 5628
5724 5730 5735 5739 5744 5748 5752 5755 5758 5760 5762 5763 5765 5765 5765 5765 5764 5763 5762 5760 5758 5755 5752 5749 5745 5741 5736 5732 5727 5721 5716 5710 5703 5696 5689 5682 5673 5665 5656 5646 5637 5627 5617
5716 5721 5726 5731 5736 5740 5744 5747 5750 5752 5754 5756 5757 5758 5758 5757 5757 5756 5755 5753 5751 5748 5745 5741 5737 5733 5729 5724 5719 5713 5708 5701 5695 5688 5680 5672 5664 5655 5645 5636 5626 5617 5607
5706 5712 5718 5722 5727 5732 5736 5739 5742 5744 5747 5748 5749 5750 5750 5750 5750 5749 5747 5746 5744 5741 5738 5734 5730 5726 5721 5716 5711 5705 5699 5693 5686 5679 5671 5663 5654 5645 5635 5626 5616 5606 5596
5698 5703 5709 5714 5719 5723 5727 5731 5734 5736 5739 5741 5742 5742 5743 5743 5742 5741 5740 5738 5736 5734 5730 5726 5722 5718 5713 5708 5703 5697 5691 5684 5677 5670 5662 5653 5644 5635 5625 5616 5606 5595 5585
5689 5695 5700 5705 5710 5715 5719 5723 5726 5728 5731 5733 5734 5735 5735 5735 5735 5734 5732 5731 5728 5726 5723 5719 5715 5710 5706 5701 5695 5689 5682 5676 5668 5661 5652 5643 5634 5625 5615 5605 5595 5585 5575
5680 5686 5691 5697 5702 5707 5711 5715 5718 5721 5723 5725 5726 5727 5727 5727 5727 5726 5725 5723 5721 5718 5715 5712 5708 5703 5698 5692 5687 5680 5674 5666 5659 5652 5643 5634 5624 5615 5605 5595 5585 5575 5564
5671 5677 5683 5688 5693 5698 5703 5707 5710 5713 5715 5717 5718 5719 5720 5720 5719 5719 5717 5716 5714 5711 5708 5704 5700 5695 5690 5684 5678 5672 5665 5658 5650 5642 5633 5624 5615 5605 5595 5585 5574 5564 5554
5662 5668 5674 5679 5684 5689 5694 5698 5701 5704 5707 5708 5710 5711 5712 5712 5712 5711 5710 5708 5706 5703 5700 5696 5692 5687 5682 5676 5670 5663 5656 5649 5640 5632 5623 5614 5605 5595 5585 5575 5566 5555 5544
5652 5658 5665 5671 5676 5681 5686 5690 5693 5696 5698 5700 5702 5703 5704 5704 5704 5703 5702 5700 5698 5695 5692 5688 5684 5679 5674 5668 5661 5655 5648 5640 5632 5622 5613 5605 5596 5587 5576 5566 5555 5544 5534
5642 5649 5656 5662 5667 5673 5678 5681 5685 5688 5690 5692 5694 5695 5696 5696 5696 5695 5694 5692 5690 5687 5684 5680 5676 5671 5665 5659 5653 5646 5638 5632 5624 5616 5605 5595 5586 5576 5566 5556 5545 5535 5524
5633 5640 5647 5653 5659 5665 5669 5673 5676 5679 5682 5684 5686 5687 5688 5688 5688 5687 5686 5684 5682 5679 5676 5672 5668 5662 5657 5651 5645 5638 5630 5621 5613 5604 5595 5585 5575 5565 5556 5546 5535 5525 5514
5624 5631 5638 5645 5651 5656 5661 5664 5668 5671 5674 5676 5678 5680 5680 5680 5680 5679 5678 5676 5674 5671 5668 5664 5660 5655 5649 5642 5636 5629 5621 5613 5604 5595 5585 5576 5566 5555 5545 5535 5525 5515 5504
5615 5622 5629 5635 5642 5647 5652 5656 5659 5662 5665 5668 5670 5671 5672 5673 5672 5671 5670 5668 5666 5663 5659 5655 5651 5646 5640 5634 5628 5621 5613 5605 5596 5586 5576 5567 5557 5547 5536 5525 5515 5504 5494
5606 5613 5620 5626 5633 5638 5643 5647 5650 5654 5657 5660 5662 5663 5664 5665 5664 5663 5662 5660 5658 5655 5651 5647 5643 5637 5632 5626 5619 5612 5604 5596 5587 5578 5568 5558 5548 5538 5528 5516 5506 5496 5486